Retour au catalogue

STARLINK-3243

ActifCommunicationsVLEO
NORAD 51116·PAYLOAD·🇺🇸 United States

Lancé Jan 19, 2022 depuis Cape Canaveral Space Force Station

Loading…

Prochains Passages (prochaines 24 heures)

TLE

FraisSource: CelesTrak SupGP

Époque: Sep 14, 2026, 20:46 UTC

1 51116C 22005N   26257.86576389 -.00031019  00000+0 -99772-3 0  2576
2 51116  53.1565 150.0240 0001248  88.2327 271.1941 15.31710195    17

Suivez STARLINK-3243 en temps réel avec AllMySat

Download on the App Store